Snowfall_Accumulation
0.0 0.0 0.0 0.0 0.0 0.0 0.0 0.0 0.0 0.0 0.0 0.0 0.0 0.0 0.0 0.0 0.0 0.0 0.0 0.0 0.0 0.0 0.0 0.0 0.0 0.0 0.0 0.0 0.0 0.0 0.0 0.0 0.0 0.0 0.0 0.0 0.0 0.0 0.0 0.0 0.0 0.0 0.0 0.0
0.0 0.0 0.0 0.0 0.0 0.0 0.0 0.0 0.0 0.0 0.0 0.0 0.0 0.0 0.0 0.0 0.0 0.0 0.0 0.0 0.0 0.0 0.0 0.0 0.0 0.0 0.0 0.0 0.0 0.0 0.0 0.0 0.0 0.0 0.0 0.0 0.0 0.0 0.0 0.0 0.0 0.0 0.0 0.0
0.0 0.0 0.0 0.0 0.0 0.0 0.0 0.0 0.0 0.0 0.0 0.0 0.0 0.0 0.0 0.0 0.0 0.0 0.0 0.0 0.0 0.0 0.0 0.0 0.0 0.0 0.0 0.0 0.0 0.0 0.0 0.0 0.0 0.0 0.0 0.0 0.0 0.0 0.0 0.0 0.0 0.0 0.0 0.0
0.0 0.0 0.0 0.0 0.0 0.0 0.0 0.0 0.0 0.0 0.0 0.0 0.0 0.0 0.0 0.0 0.0 0.0 0.0 0.0 0.0 0.0 0.0 0.0 0.0 0.0 0.0 0.0 0.0 0.0 0.0 0.0 0.0 0.0 0.0 0.0 0.0 0.0 0.0 0.0 0.0 0.0 0.0 0.0
0.0 0.0 0.0 0.0 0.0 0.0 0.0 0.0 0.0 0.0 0.0 0.0 0.0 0.0 0.0 0.0 0.0 0.0 0.0 0.0 0.0 0.0 0.0 0.0 0.0 0.0 0.0 0.0 0.0 0.0 0.0 0.0 0.0 0.0 0.0 0.0 0.0 0.0 0.0 0.0 0.0 0.0 0.0 0.0
0.0 0.0 0.0 0.0 0.0 0.0 0.0 0.0 0.0 0.0 0.0 0.1 0.0 0.0 0.0 0.0 0.0 0.0 0.0 0.0 0.0 0.0 0.0 0.0 0.0 0.0 0.0 0.0 0.0 0.0 0.0 0.0 0.0 0.0 0.0 0.0 0.0 0.0 0.0 0.0 0.0 0.0 0.0 0.0
0.0 0.0 0.0 0.0 0.0 0.0 0.0 0.0 0.1 0.3 1.1 0.4 0.0 0.1 0.0 0.0 0.0 0.0 0.0 0.0 0.0 0.0 0.0 0.0 0.0 0.0 0.0 0.0 0.0 0.0 0.0 0.0 0.0 0.0 0.0 0.0 0.0 0.0 0.0 0.0 0.0 0.0 0.0 0.0
0.0 0.0 0.0 0.0 0.0 0.0 0.0 0.0 0.2 0.5 0.9 0.3 0.1 0.1 0.0 0.0 0.0 0.0 0.0 0.0 0.0 0.0 0.0 0.0 0.0 0.0 0.0 0.0 0.0 0.0 0.0 0.0 0.0 0.0 0.0 0.0 0.0 0.0 0.0 0.0 0.0 0.0 0.0 0.0
0.0 0.0 0.0 0.0 0.0 0.0 0.0 0.0 0.0 0.1 2.3 1.2 0.0 0.0 0.0 0.0 0.0 0.0 0.0 0.0 0.0 0.0 0.0 0.0 0.0 0.0 0.0 0.0 0.0 0.0 0.0 0.0 0.0 0.0 0.0 0.0 0.0 0.0 0.0 0.0 0.0 0.0 0.0 0.0
0.0 0.0 0.0 0.0 0.0 0.0 0.0 0.0 0.2 0.2 3.3 2.0 0.0 0.0 0.0 0.0 0.0 0.0 0.0 0.0 0.0 0.0 0.0 0.0 0.0 0.0 0.0 0.0 0.0 0.0 0.0 0.0 0.0 0.0 0.0 0.0 0.0 0.0 0.0 0.0 0.0 0.0 0.0 0.0
0.0 0.0 0.0 0.0 0.0 0.0 0.0 0.0 0.0 0.0 0.2 1.1 1.0 0.0 0.0 0.0 0.0 0.0 0.0 0.0 0.0 0.0 0.0 0.0 0.0 0.0 0.0 0.0 0.0 0.0 0.0 0.0 0.0 0.0 0.0 0.0 0.0 0.0 0.0 0.0 0.0 0.0 0.0 0.0
0.0 0.0 0.9 0.0 0.0 0.0 0.0 0.0 0.0 0.4 0.2 0.3 0.7 0.6 0.0 0.0 0.0 0.0 0.0 0.0 0.0 0.0 0.0 0.0 0.0 0.0 0.0 0.0 0.0 0.0 0.0 0.0 0.0 0.0 0.0 0.0 0.0 0.0 0.0 0.0 0.0 0.0 0.0 0.0
0.0 0.4 2.4 0.6 0.0 0.0 0.0 0.0 0.0 0.0 0.2 0.6 4.0 0.7 0.0 0.0 0.0 0.0 0.0 0.0 0.0 0.0 0.0 0.0 0.0 0.0 0.0 0.0 0.0 0.0 0.0 0.0 0.0 0.0 0.0 0.0 0.0 0.0 0.0 0.0 0.0 0.0 0.0 0.0
nan 0.0 0.2 0.5 0.0 0.0 0.0 0.0 0.0 0.0 1.7 0.4 0.3 0.0 0.0 0.0 0.0 0.0 0.0 0.0 0.0 0.0 0.0 0.0 0.0 0.0 0.0 0.0 0.0 0.0 0.0 0.0 0.0 0.0 0.0 0.0 0.0 0.0 0.0 0.0 0.0 0.0 0.0 0.0
0.0 1.6 0.0 0.0 0.0 0.0 0.0 0.0 0.0 0.0 0.0 0.4 0.0 0.0 0.0 0.0 0.0 0.0 0.0 0.0 0.0 0.0 0.0 0.0 0.0 0.0 0.0 0.0 0.0 0.0 0.0 0.0 0.0 0.0 0.0 0.0 0.0 0.0 0.0 0.1 0.1 0.1 0.1 0.0
0.0 1.6 0.1 1.0 0.0 0.0 0.1 0.0 0.0 0.0 0.0 0.0 0.0 0.0 0.0 0.0 0.0 0.0 0.0 0.0 0.0 0.0 0.0 0.0 0.0 0.0 0.0 0.0 0.0 0.0 0.0 0.0 0.0 0.0 0.0 0.0 0.1 0.2 0.2 0.2 0.2 0.2 0.2 0.2
0.1 1.1 5.2 15.5 0.1 0.2 11.0 0.1 0.0 0.0 0.0 0.0 0.0 0.0 0.0 0.0 0.0 0.0 0.0 0.0 0.0 0.0 0.0 0.0 0.0 0.0 0.0 0.0 0.0 0.0 0.0 0.0 0.1 0.2 0.6 0.5 0.4 0.5 0.3 0.3 0.3 0.3 0.2 0.2
0.1 1.1 3.3 14.6 7.1 35.7 1.9 0.0 0.0 0.0 0.0 0.0 0.0 0.0 0.0 0.0 0.0 0.0 0.0 0.0 0.0 0.0 0.0 0.0 0.0 0.0 0.0 0.0 0.0 0.0 0.0 0.1 0.2 0.5 0.9 0.7 0.5 1.2 0.6 0.5 0.5 0.3 0.3 0.4
0.0 0.1 9.0 29.1 19.3 0.4 0.0 0.0 0.0 0.0 0.0 0.0 0.0 0.0 0.0 0.0 0.0 0.0 0.0 0.0 0.0 0.0 0.0 0.0 0.0 0.0 0.0 0.0 0.0 0.1 0.2 0.2 0.2 0.2 0.4 0.4 0.8 1.7 0.8 2.4 0.9 0.6 1.2 1.0
0.1 0.0 0.6 22.2 31.2 23.3 0.0 0.0 0.0 0.0 1.1 0.0 0.0 0.0 0.0 0.0 0.2 0.0 0.0 0.0 0.0 0.0 0.0 0.0 0.0 0.0 0.0 0.0 0.0 0.2 0.2 0.5 0.4 0.3 0.3 0.4 0.9 3.0 2.4 1.0 1.9 1.9 2.1 2.3
3.8 6.5 19.8 17.6 24.6 7.5 0.3 0.2 0.0 5.4 1.2 0.9 0.2 0.1 0.1 0.2 0.0 0.0 0.0 0.0 0.0 0.0 0.0 0.0 0.0 0.0 0.0 0.1 0.3 0.3 0.3 0.5 0.5 0.8 0.9 1.1 1.1 3.4 1.7 2.1 1.7 3.1 4.5 3.3
1.6 9.5 17.3 11.4 22.3 30.5 0.2 0.1 0.4 0.3 0.2 0.3 0.1 0.0 0.0 0.0 0.0 0.0 0.0 0.0 0.0 0.0 0.0 0.0 0.0 0.0 0.0 0.4 0.5 0.7 0.5 0.6 1.3 1.8 2.1 2.8 4.4 3.5 3.4 7.6 4.7 7.2 6.8 7.2
6.7 0.8 6.3 1.7 4.5 0.1 0.1 0.1 0.0 0.1 0.3 0.1 0.1 0.0 0.0 0.0 0.0 0.0 0.0 0.0 0.0 0.0 0.0 0.0 1.0 1.0 0.0 1.4 1.2 1.9 1.3 1.6 2.6 5.1 7.2 7.3 6.3 6.3 6.4 8.9 7.2 8.6 8.4 9.6
1.0 1.1 5.0 4.3 2.8 0.7 0.3 0.1 0.0 0.0 0.0 0.0 0.0 0.0 0.0 0.0 0.0 0.0 0.0 0.0 0.0 0.6 1.0 1.3 1.8 2.6 2.4 2.2 2.7 3.1 2.7 2.9 8.7 9.3 5.3 4.4 5.8 4.4 5.7 6.6 7.5 10.5 9.4 8.5
0.6 0.9 2.0 3.3 1.2 0.8 0.7 0.2 0.0 0.0 0.0 0.0 0.0 0.0 0.0 0.0 0.0 0.0 0.4 0.7 0.5 0.8 1.1 1.6 2.4 2.4 2.3 2.0 2.4 3.6 3.1 3.3 5.3 6.7 3.9 4.7 6.3 7.0 4.5 3.9 5.9 5.3 3.4 7.0
0.0 0.1 1.0 2.7 0.3 0.4 0.1 0.0 0.0 0.0 0.0 0.1 0.1 0.2 0.2 0.3 0.2 0.4 0.6 0.4 0.6 1.1 1.4 1.9 2.3 2.2 2.6 3.3 3.8 5.0 6.5 5.2 5.6 4.2 5.7 5.1 5.0 4.6 4.3 4.9 5.1 nan nan nan
Water_Equivalent
0.00 0.00 0.00 0.00 0.00 0.00 0.00 0.00 0.00 0.00 0.00 0.00 0.00 0.00 0.00 0.00 0.00 0.00 0.00 0.00 0.00 0.00 0.00 0.00 0.00 0.00 0.00 0.00 0.00 0.00 0.00 0.00 0.00 0.00 0.00 0.00 0.00 0.00 0.00 0.00 0.00 0.00 0.00 0.00
0.00 0.00 0.00 0.00 0.00 0.00 0.00 0.00 0.00 0.00 0.00 0.00 0.00 0.00 0.00 0.00 0.00 0.00 0.00 0.00 0.00 0.00 0.00 0.00 0.00 0.00 0.00 0.00 0.00 0.00 0.00 0.00 0.00 0.00 0.00 0.00 0.00 0.00 0.00 0.00 0.00 0.00 0.00 0.00
0.00 0.00 0.00 0.00 0.00 0.00 0.00 0.00 0.00 0.00 0.00 0.00 0.00 0.00 0.00 0.00 0.00 0.00 0.00 0.00 0.00 0.00 0.00 0.00 0.00 0.00 0.00 0.00 0.00 0.00 0.00 0.00 0.00 0.00 0.00 0.00 0.00 0.00 0.00 0.00 0.00 0.00 0.00 0.00
0.00 0.00 0.00 0.00 0.00 0.00 0.00 0.00 0.00 0.00 0.00 0.00 0.00 0.00 0.00 0.00 0.00 0.00 0.00 0.00 0.00 0.00 0.00 0.00 0.00 0.00 0.00 0.00 0.00 0.00 0.00 0.00 0.00 0.00 0.00 0.00 0.00 0.00 0.00 0.00 0.00 0.00 0.00 0.00
0.00 0.00 0.00 0.00 0.00 0.00 0.00 0.00 0.00 0.00 0.00 0.00 0.00 0.00 0.00 0.00 0.00 0.00 0.00 0.00 0.00 0.00 0.00 0.00 0.00 0.00 0.00 0.00 0.00 0.00 0.00 0.00 0.00 0.00 0.00 0.00 0.00 0.00 0.00 0.00 0.00 0.00 0.00 0.00
0.00 0.00 0.00 0.00 0.00 0.00 0.00 0.00 0.00 0.00 0.00 0.03 0.00 0.00 0.00 0.00 0.00 0.00 0.00 0.00 0.00 0.00 0.00 0.00 0.00 0.00 0.00 0.00 0.00 0.00 0.00 0.00 0.00 0.00 0.00 0.00 0.00 0.00 0.00 0.00 0.00 0.00 0.00 0.00
0.00 0.00 0.00 0.00 0.00 0.00 0.00 0.00 0.03 0.07 0.23 0.10 0.00 0.02 0.00 0.00 0.00 0.00 0.00 0.00 0.00 0.00 0.00 0.00 0.00 0.00 0.00 0.00 0.00 0.00 0.00 0.00 0.00 0.00 0.00 0.00 0.00 0.00 0.00 0.00 0.00 0.00 0.00 0.00
0.00 0.00 0.00 0.00 0.00 0.00 0.00 0.00 0.06 0.10 0.18 0.07 0.02 0.03 0.00 0.00 0.00 0.00 0.00 0.00 0.00 0.00 0.00 0.00 0.00 0.00 0.00 0.00 0.00 0.00 0.00 0.00 0.00 0.00 0.00 0.00 0.00 0.00 0.00 0.00 0.00 0.00 0.00 0.00
0.00 0.00 0.00 0.00 0.00 0.00 0.00 0.00 0.00 0.02 0.41 0.26 0.00 0.00 0.00 0.00 0.00 0.00 0.00 0.00 0.00 0.00 0.00 0.00 0.00 0.00 0.00 0.00 0.00 0.00 0.00 0.00 0.00 0.00 0.00 0.00 0.00 0.00 0.00 0.00 0.00 0.00 0.00 0.00
0.00 0.01 0.00 0.00 0.00 0.00 0.00 0.00 0.04 0.04 0.56 0.32 0.00 0.00 0.00 0.00 0.00 0.00 0.00 0.00 0.00 0.00 0.00 0.00 0.00 0.00 0.00 0.00 0.00 0.00 0.00 0.00 0.00 0.00 0.00 0.00 0.00 0.00 0.00 0.00 0.00 0.00 0.00 0.00
0.00 0.00 0.00 0.00 0.00 0.00 0.00 0.00 0.00 0.00 0.04 0.21 0.21 0.01 0.00 0.00 0.00 0.00 0.00 0.00 0.00 0.00 0.00 0.00 0.00 0.00 0.00 0.00 0.00 0.00 0.00 0.00 0.00 0.00 0.00 0.00 0.00 0.00 0.00 0.00 0.00 0.00 0.00 0.00
0.00 0.00 0.23 0.00 0.00 0.00 0.00 0.00 0.00 0.12 0.05 0.07 0.17 0.12 0.00 0.00 0.00 0.00 0.00 0.00 0.00 0.00 0.00 0.00 0.00 0.00 0.00 0.00 0.00 0.00 0.00 0.00 0.00 0.00 0.00 0.00 0.00 0.00 0.00 0.00 0.00 0.00 0.00 0.00
0.00 0.10 0.54 0.14 0.00 0.00 0.00 0.00 0.00 0.00 0.06 0.14 0.72 0.15 0.00 0.00 0.00 0.00 0.00 0.00 0.00 0.00 0.00 0.00 0.00 0.00 0.00 0.00 0.00 0.00 0.00 0.00 0.00 0.00 0.00 0.00 0.00 0.00 0.00 0.00 0.00 0.00 0.00 0.00
nan 0.01 0.05 0.13 0.01 0.00 0.00 0.00 0.00 0.00 0.37 0.11 0.09 0.00 0.00 0.00 0.00 0.00 0.00 0.00 0.00 0.00 0.00 0.00 0.00 0.00 0.00 0.00 0.00 0.00 0.00 0.00 0.00 0.00 0.00 0.00 0.00 0.00 0.00 0.00 0.00 0.00 0.00 0.00
0.00 0.44 0.00 0.00 0.00 0.00 0.01 0.01 0.00 0.00 0.00 0.08 0.00 0.00 0.00 0.00 0.00 0.00 0.00 0.00 0.00 0.00 0.00 0.00 0.00 0.00 0.00 0.00 0.00 0.00 0.00 0.00 0.00 0.00 0.00 0.00 0.00 0.00 0.00 0.02 0.03 0.03 0.03 0.00
0.00 0.47 0.03 0.26 0.00 0.00 0.03 0.00 0.00 0.00 0.00 0.00 0.00 0.00 0.00 0.00 0.00 0.00 0.00 0.00 0.00 0.00 0.00 0.00 0.00 0.00 0.00 0.00 0.00 0.00 0.00 0.00 0.00 0.00 0.00 0.00 0.03 0.05 0.05 0.05 0.05 0.04 0.03 0.03
0.02 0.36 1.47 2.81 0.04 0.05 1.60 0.04 0.00 0.00 0.00 0.00 0.01 0.00 0.00 0.00 0.00 0.00 0.00 0.00 0.00 0.00 0.00 0.00 0.00 0.00 0.00 0.00 0.00 0.00 0.00 0.00 0.03 0.05 0.10 0.09 0.07 0.09 0.07 0.05 0.05 0.04 0.04 0.04
0.03 0.36 0.98 2.96 1.51 4.22 0.34 0.00 0.00 0.00 0.00 0.00 0.00 0.00 0.00 0.00 0.00 0.00 0.00 0.00 0.00 0.00 0.00 0.00 0.00 0.00 0.00 0.00 0.00 0.00 0.01 0.03 0.04 0.08 0.15 0.12 0.07 0.17 0.08 0.07 0.07 0.05 0.04 0.06
0.00 0.03 1.90 3.95 2.59 0.10 0.00 0.00 0.00 0.01 0.01 0.00 0.00 0.00 0.00 0.00 0.00 0.00 0.00 0.00 0.00 0.00 0.00 0.00 0.00 0.00 0.00 0.00 0.00 0.02 0.03 0.03 0.03 0.04 0.06 0.07 0.12 0.21 0.10 0.29 0.11 0.07 0.15 0.12
0.02 0.00 0.19 3.62 4.09 2.80 0.01 0.00 0.00 0.00 0.23 0.01 0.01 0.00 0.00 0.00 0.05 0.00 0.00 0.00 0.00 0.00 0.00 0.00 0.00 0.00 0.00 0.00 0.00 0.03 0.04 0.06 0.05 0.04 0.04 0.05 0.12 0.36 0.28 0.12 0.23 0.25 0.26 0.26
0.79 1.44 3.45 3.19 3.58 1.33 0.10 0.04 0.00 0.68 0.25 0.22 0.04 0.01 0.02 0.07 0.00 0.00 0.00 0.00 0.00 0.00 0.00 0.00 0.00 0.00 0.00 0.02 0.04 0.04 0.05 0.06 0.08 0.11 0.11 0.14 0.14 0.40 0.21 0.27 0.21 0.38 0.52 0.36
0.27 1.57 2.88 2.03 3.05 3.83 0.04 0.02 0.06 0.07 0.06 0.07 0.03 0.00 0.01 0.00 0.00 0.00 0.00 0.00 0.00 0.00 0.00 0.00 0.00 0.00 0.00 0.06 0.08 0.10 0.07 0.09 0.18 0.22 0.23 0.29 0.49 0.43 0.42 0.86 0.55 0.79 0.74 0.77
0.87 0.17 1.26 0.40 0.97 0.03 0.02 0.04 0.01 0.03 0.08 0.03 0.02 0.00 0.00 0.00 0.00 0.00 0.00 0.00 0.00 0.00 0.00 0.00 0.13 0.13 0.01 0.18 0.17 0.24 0.15 0.17 0.26 0.52 0.76 0.77 0.71 0.75 0.76 1.10 0.77 1.03 0.91 1.04
0.17 0.19 0.94 0.76 0.49 0.13 0.05 0.01 0.00 0.01 0.01 0.00 0.00 0.00 0.00 0.00 0.00 0.00 0.00 0.01 0.00 0.09 0.13 0.17 0.23 0.27 0.26 0.24 0.28 0.33 0.27 0.29 1.01 1.03 0.55 0.45 0.60 0.53 0.65 0.85 0.96 1.35 1.09 0.91
0.12 0.17 0.35 0.48 0.19 0.14 0.14 0.05 0.00 0.00 0.00 0.00 0.00 0.00 0.00 0.00 0.00 0.00 0.08 0.11 0.07 0.10 0.13 0.19 0.25 0.25 0.23 0.20 0.22 0.35 0.32 0.37 0.61 0.68 0.36 0.51 0.74 0.83 0.49 0.44 0.74 0.65 0.42 0.92
0.00 0.01 0.14 0.38 0.06 0.07 0.02 0.00 0.00 0.00 0.00 0.02 0.03 0.03 0.04 0.05 0.04 0.06 0.09 0.07 0.08 0.13 0.16 0.20 0.22 0.20 0.22 0.28 0.33 0.47 0.66 0.61 0.65 0.41 0.60 0.57 0.58 0.51 0.48 0.51 0.53 nan nan nan
SL_Ratio
nan nan nan nan nan nan nan nan nan nan nan nan nan nan nan nan nan nan nan nan nan nan nan nan nan nan nan nan nan nan nan nan nan nan nan nan nan nan nan nan nan nan nan nan
nan nan nan nan nan nan nan nan nan nan nan nan nan nan nan nan nan nan nan nan nan nan nan nan nan nan nan nan nan nan nan nan nan nan nan nan nan nan nan nan nan nan nan nan
nan nan nan nan nan nan nan nan nan nan nan nan nan nan nan nan nan nan nan nan nan nan nan nan nan nan nan nan nan nan nan nan nan nan nan nan nan nan nan nan nan nan nan nan
nan nan nan nan nan nan nan nan nan nan nan nan nan nan nan nan nan nan nan nan nan nan nan nan nan nan nan nan nan nan nan nan nan nan nan nan nan nan nan nan nan nan nan nan
nan nan nan nan nan nan nan nan nan nan nan nan nan nan nan nan nan nan nan nan nan nan nan nan nan nan nan nan nan nan nan nan nan nan nan nan nan nan nan nan nan nan nan nan
nan nan nan nan nan nan nan nan nan nan nan 4.4 nan nan nan nan nan nan nan nan nan nan nan nan nan nan nan nan nan nan nan nan nan nan nan nan nan nan nan nan nan nan nan nan
nan nan nan nan nan nan nan nan 4.2 4.3 4.6 4.3 nan 4.2 nan nan nan nan nan nan nan nan nan nan nan nan nan nan nan nan nan nan nan nan nan nan nan nan nan nan nan nan nan nan
nan nan nan nan nan nan nan nan 3.9 5.1 4.7 4.1 4.6 4.4 nan nan nan nan nan nan nan nan nan nan nan nan nan nan nan nan nan nan nan nan nan nan nan nan nan nan nan nan nan nan
0.0 4.0 nan nan nan nan nan nan nan 4.4 5.5 4.5 nan nan nan nan nan nan nan nan nan nan nan nan nan nan nan nan nan nan nan nan nan nan nan nan nan nan nan nan nan nan nan nan
nan 3.5 nan nan nan nan nan nan 4.4 4.4 5.8 6.2 nan nan nan nan nan nan nan nan nan nan nan nan nan nan nan nan nan nan nan nan nan nan nan nan nan nan nan nan nan nan nan nan
nan nan nan nan nan nan nan nan nan nan 4.3 4.9 5.0 4.2 nan nan nan nan nan nan nan nan nan nan nan nan nan nan nan nan nan nan nan nan nan nan nan nan nan nan nan nan nan nan
nan nan 4.1 nan nan nan nan nan nan 3.8 4.8 4.3 4.1 5.2 nan nan nan nan nan nan nan nan nan nan nan nan nan nan nan nan nan nan nan nan nan nan nan nan nan nan nan nan nan nan
nan 3.6 4.5 4.6 nan nan nan nan nan nan 3.8 4.7 5.5 4.8 nan nan nan nan nan nan nan nan nan nan nan nan nan nan nan nan nan nan nan nan nan nan nan nan nan nan nan nan nan nan
nan 3.3 4.3 3.7 4.2 nan nan nan nan nan 4.5 3.5 3.5 nan nan nan nan nan nan nan nan nan nan nan nan nan nan nan nan nan nan nan nan nan nan nan nan nan nan nan nan nan nan nan
nan 3.7 2.2 nan nan nan 3.6 3.3 nan nan nan 4.8 nan nan nan nan nan nan nan nan nan nan nan nan nan nan nan nan nan nan nan nan nan nan nan nan nan nan 3.6 3.7 3.8 3.9 4.1 nan
nan 3.3 2.8 3.8 nan nan 3.1 0.0 2.7 nan nan nan nan nan nan nan nan nan nan nan nan nan nan nan nan nan nan nan nan nan nan nan nan 0.0 5.0 5.0 4.3 4.5 4.4 4.3 4.3 4.3 4.7 4.9
2.7 3.2 3.5 5.5 3.2 3.4 6.9 3.5 nan nan nan nan 3.1 nan 3.3 nan nan nan nan nan nan nan nan nan nan nan nan nan nan nan nan 3.3 4.4 4.7 5.4 5.7 5.3 6.1 5.2 5.1 5.9 6.5 6.3 6.1
3.0 3.0 3.3 4.9 4.7 8.5 5.7 nan nan nan nan nan nan nan nan nan nan nan nan nan nan nan nan nan nan nan nan nan nan nan 3.4 4.4 4.9 6.1 5.9 6.4 6.2 7.4 7.7 7.7 7.5 6.9 6.7 7.1
nan 3.0 4.7 7.4 7.5 4.3 0.0 nan 0.0 4.2 3.5 nan nan nan nan nan nan nan nan nan nan nan nan nan nan nan nan nan nan 4.3 5.7 5.6 5.9 6.2 6.5 6.4 7.2 7.8 8.0 8.3 8.2 7.9 8.0 8.0
3.1 3.3 3.2 6.1 7.6 8.3 3.7 3.3 nan nan 4.9 3.2 3.0 3.1 3.8 3.3 3.8 nan nan nan nan nan nan nan nan nan nan nan nan 5.6 6.7 7.4 7.3 6.9 6.8 7.2 7.8 8.2 8.4 8.1 8.2 7.8 7.9 8.8
4.9 4.5 5.7 5.5 6.9 5.6 3.4 4.0 2.2 7.9 4.7 4.3 4.2 3.6 3.4 3.3 nan nan nan nan nan nan 5.0 0.0 nan nan nan 5.3 6.1 7.0 7.1 7.3 6.9 7.4 8.1 8.4 8.2 8.4 8.2 8.0 7.8 8.1 8.6 9.2
5.8 6.1 6.0 5.6 7.3 8.0 3.5 4.1 5.7 4.2 4.3 4.2 4.1 3.6 3.8 nan nan nan nan 0.0 3.3 5.0 3.3 2.5 4.0 2.0 nan 6.5 6.6 7.3 7.1 7.2 7.4 8.2 9.0 9.4 8.9 8.2 8.1 8.8 8.5 9.1 9.3 9.3
7.7 5.0 5.0 4.3 4.7 3.2 3.7 3.7 2.9 3.4 3.8 3.8 3.8 3.3 0.0 5.0 nan nan nan nan nan 0.0 0.0 nan 7.3 7.8 3.2 7.7 7.1 8.0 8.3 9.1 10.0 9.7 9.5 9.4 8.9 8.4 8.4 8.1 9.4 8.3 9.2 9.2
5.9 5.4 5.3 5.7 5.6 5.2 4.9 3.7 3.6 2.9 3.3 nan 5.0 3.6 2.5 3.6 nan nan 10.0 4.8 nan 6.9 7.8 7.8 8.0 9.5 9.3 9.2 9.6 9.5 10.0 10.1 8.6 9.0 9.7 9.8 9.6 8.3 8.7 7.7 7.8 7.8 8.6 9.3
5.0 5.1 5.9 6.7 6.4 5.9 5.4 4.5 2.5 3.0 nan nan nan nan nan nan nan nan 5.7 6.2 6.1 7.9 8.2 8.2 9.6 9.8 9.8 10.0 10.6 10.3 9.6 8.8 8.6 9.9 10.7 9.3 8.6 8.4 9.2 8.9 7.9 8.1 8.1 7.6
6.0 6.4 7.0 7.1 5.5 5.0 5.3 nan nan 3.3 3.3 4.6 4.8 5.3 5.5 5.5 5.5 6.2 6.7 6.4 6.6 7.9 9.1 9.8 10.3 10.7 12.0 11.9 11.6 10.8 10.0 8.4 8.7 10.3 9.5 8.9 8.7 8.9 9.1 9.7 9.6 nan nan nan